Zurück zum Katalog

CZ-6A DEB

AktivPO
NORAD 61146·DEBRIS·🇨🇳 China

Gestartet Aug 6, 2024 von Taiyuan Satellite Launch Center

Loading…

Nächste Überflüge (nächste 24 Stunden)

TLE

AktuellSource: Space-Track

Epoche: Sep 14, 2026, 00:17 UTC

1 61146U 24140QQ  26257.01245734  .00002159  00000-0  87838-3 0  9991
2 61146  89.1295 276.3324 0077705 299.5827  59.7638 14.25622364107044

Verfolge CZ-6A DEB in Echtzeit mit AllMySat

Download on the App Store